Regional Weather Roundup
Issued by NWS

Home | Current Version | Previous Version | Graphics & Text | Print | Product List | Glossary On
Versions: 1 2 3 4 5 6 7 8 9 10 11 12 13 14 15 16 17 18 19 20 21 22 23 24 25 26 27 28 29 30 31 32 33 34 35 36 37 38 39 40 41 42 43 44 45 46 47 48 49 50
000
ASUS43 KOAX 161710
RWRNE

WEATHER ROUNDUP FOR NEBRASKA
NATIONAL WEATHER SERVICE OMAHA NE
1200 PM CDT TUE SEP 16 2014

NOTES: SATELLITE DATA IS BEING USED TO AUGMENT CLOUD COVER ABOVE
       12000 FEET.
       "FAIR" INDICATES FEW OR NO CLOUDS BELOW 12,000 FEET WITH NO
       SIGNIFICANT WEATHER AND/OR OBSTRUCTIONS TO VISIBILITY.

  * THESE STATIONS DO NOT REPORT WEATHER SUCH AS RAIN...SNOW OR FOG.

NEZ001>004-019>022-054>056-161800-
NEBRASKA PANHANDLE

CITY           SKY/WX    TMP DP  RH WIND       PRES   REMARKS
SCOTTSBLUFF    SUNNY     70  52  52 NW10      30.09F
ALLIANCE       SUNNY     70  53  54 NW10      30.06F
CHADRON        SUNNY     71  48  43 NW6       30.04F
KIMBALL        SUNNY     76  39  25 NW15G22   30.11S
SIDNEY         SUNNY     78  45  30 NW13G21   30.09F
$$

NEZ057>060-069>072-079>082-161800-
SOUTHWEST NEBRASKA

CITY           SKY/WX    TMP DP  RH WIND       PRES   REMARKS
NORTH PLATTE   MOSUNNY   66  55  67 SW15      30.08F
IMPERIAL       SUNNY     69  54  58 S17G25    30.07F
LEXINGTON      CLOUDY    58  53  82 S14       30.12F
MCCOOK         CLOUDY    65  54  67 S17       30.11F
OGALLALA       SUNNY     71  58  63 S10       30.05F
$$

NEZ005>010-023>029-035>040-094-161800-
NORTH CENTRAL NEBRASKA

CITY           SKY/WX    TMP DP  RH WIND       PRES   REMARKS
VALENTINE      SUNNY     66  52  60 S12       30.02F
AINSWORTH      SUNNY     65  51  60 SW17G23   30.05F
BROKEN BOW     PTSUNNY   65  52  62 S20G26    30.09F
O`NEILL        SUNNY     64  51  64 S21       30.09F
ORD            SUNNY     62  51  67 S17G24    30.09F
THEDFORD       SUNNY     69  55  60 SW15G24   30.05F
$$

NEZ041-046>049-061>064-073>077-083>087-161800-
SOUTH CENTRAL NEBRASKA

CITY           SKY/WX    TMP DP  RH WIND       PRES   REMARKS
GRAND ISLAND   PTSUNNY   63  50  62 S14       30.16F
AURORA         SUNNY     62  47  58 S10G17    30.17F
HASTINGS       SUNNY     62  48  60 S13       30.16F
HEBRON         SUNNY     63  47  55 SW6       30.19F
HOLDREGE       CLOUDY    58  49  74 S13       30.14F
KEARNEY *      CLOUDY    63  52  67 S17       30.15F
YORK           LGT RAIN  61  48  63 S12       30.18F
$$

NEZ011>018-030>034-042>045-161800-
NORTHEAST NEBRASKA

CITY           SKY/WX    TMP DP  RH WIND       PRES   REMARKS
NORFOLK        SUNNY     62  47  57 S13       30.15F
ALBION         SUNNY     61  47  61 S14       30.14F
BLAIR          SUNNY     62  46  56 S10       30.20S
COLUMBUS *     SUNNY     63  46  55 S10       30.18F
FREMONT        SUNNY     62  47  57 S10G16    30.19F
TEKAMAH        SUNNY     63  45  51 SW10G20   30.19F
WAYNE          SUNNY     63  48  57 S10G16    30.16F
$$

NEZ050>053-065>068-078-088>093-161800-
SOUTHEAST NEBRASKA

CITY           SKY/WX    TMP DP  RH WIND       PRES   REMARKS
LINCOLN        SUNNY     63  47  55 VRB6      30.21F
OMAHA EPPLEY   MOSUNNY   61  46  57 S9        30.21F
BEATRICE       SUNNY     62  48  60 SW8       30.20S
FALLS CITY     SUNNY     64  50  60 MISG      30.20F
NEBRASKA CITY  SUNNY     61  42  50 S6        30.21F
PLATTSMOUTH    MOSUNNY   62  47  59 S9        30.21S
$$

NEZ044-045-051>053-067-161800-
OMAHA AREA

CITY           SKY/WX    TMP DP  RH WIND       PRES   REMARKS
OMAHA EPPLEY   MOSUNNY   61  46  57 S9        30.21F
BLAIR          SUNNY     62  46  56 S10       30.20S
FREMONT        SUNNY     62  47  57 S10G16    30.19F
MILLARD        SUNNY     61  48  60 S7        30.20F
OFFUTT AFB     SUNNY     62  52  69 S7        30.20F
PLATTSMOUTH    MOSUNNY   62  47  59 S9        30.21S
WAHOO          FAIR      63  46  54 S10       30.20F
$$


USA.gov is the U.S. government's official web portal to all federal, state and local government web resources and services.